Weather History for KSNS - April, 2014

Change the Weather History Date:

Saturday, April 19, 2014

  Actual Average Record
Temperature  
Mean Temperature 59 °F 57 °F  
Max Temperature 65 °F 67 °F 96 °F (2009)
Min Temperature 52 °F 47 °F 37 °F (1977)
Degree Days  
Heating Degree Days 6 8  
Month to date heating degree days 121 170  
Since 1 July heating degree days 1751 2304  
Cooling Degree Days 0 0  
Month to date cooling degree days 3 0  
Year to date cooling degree days 6 1  
Growing Degree Days 8 (Base 50)    
Moisture  
Dew Point 48 °F    
Average Humidity 67    
Maximum Humidity 86    
Minimum Humidity 48    
Precipitation  
Precipitation 0.00 in 0.03 in 0.37 in (1988)
Month to date precipitation 0.37 0.69  
Year to date precipitation 4.72 8.04  
Since 1 July precipitation 5.66  
Sea Level Pressure  
Sea Level Pressure 30.10 in    
Wind  
Wind Speed 9 mph (West)    
Max Wind Speed 18 mph    
Max Gust Speed 23 mph    
Visibility 10 miles    
Events      
T = Trace of Precipitation, MM = Missing Value Source: NWS Daily Summary

Daily Weather History Graph

Daily Weather History Graph

Search for Another Location

Airport or City:

Trip Planner

Search our weather history database for the weather conditions in past years. The results will help you decide how hot, cold, wet, or windy it might be!

Date:

Astronomy

Apr. 19, 2014 Rise Set
Actual Time 6:27 AM PDT 7:44 PM PDT
Civil Twilight 6:00 AM PDT 8:11 PM PDT
Nautical Twilight 5:28 AM PDT 8:43 PM PDT
Astronomical Twilight 4:54 AM PDT 9:17 PM PDT
Moon No Moon Rise 9:54 AM PDT (4/19)
Length of Visible Light 14h 11m
Length of Day
13h 17m
Waning Gibbous, 77% of the Moon is Illuminated
Apr 19
Waning Gibbous
Apr 22
Last Quarter
Apr 28
New
May 6
First Quarter
May 14
Full

Hourly Weather History & Observations

Time (PDT) Temp. Dew Point Humidity Pressure Visibility Wind Dir Wind Speed Gust Speed Precip Events Conditions
12:53 AM 53.1 °F 48.9 °F 86% 30.01 in 9.0 mi Calm Calm - N/A   Overcast
1:19 AM 53.6 °F 48.2 °F 82% 29.98 in 9.0 mi WSW 9.2 mph - N/A   Overcast
2:53 AM 53.1 °F 46.9 °F 80% 30.01 in 10.0 mi SW 8.1 mph - N/A   Overcast
3:53 AM 53.1 °F 46.9 °F 80% 30.03 in 10.0 mi WSW 6.9 mph - N/A   Overcast
4:04 AM 51.8 °F 46.4 °F 82% 30.01 in 10.0 mi WSW 6.9 mph - N/A   Overcast
5:53 AM 52.0 °F 46.0 °F 80% 30.05 in 10.0 mi West 6.9 mph - N/A   Overcast
6:53 AM 52.0 °F 45.0 °F 77% 30.08 in 10.0 mi WSW 5.8 mph - N/A   Overcast
7:53 AM 53.1 °F 46.0 °F 77% 30.09 in 10.0 mi SW 6.9 mph - N/A   Overcast
8:25 AM 53.6 °F 46.4 °F 77% 30.07 in 10.0 mi West 8.1 mph - N/A   Scattered Clouds
8:53 AM 55.0 °F 46.0 °F 72% 30.11 in 10.0 mi West 9.2 mph - N/A   Clear
9:53 AM 57.9 °F 46.9 °F 67% 30.11 in 10.0 mi WNW 5.8 mph - N/A   Clear
10:53 AM 62.1 °F 46.0 °F 56% 30.11 in 10.0 mi WSW 3.5 mph - N/A   Clear
11:53 AM 63.0 °F 46.0 °F 54% 30.12 in 10.0 mi West 9.2 mph - N/A   Clear
12:53 PM 64.0 °F 45.0 °F 50% 30.12 in 10.0 mi West 12.7 mph - N/A   Clear
1:53 PM 64.0 °F 44.1 °F 48% 30.12 in 10.0 mi West 12.7 mph - N/A   Clear
2:53 PM 63.0 °F 45.0 °F 52% 30.13 in 10.0 mi West 16.1 mph - N/A   Clear
3:53 PM 61.0 °F 48.0 °F 62% 30.14 in 10.0 mi West 12.7 mph - N/A   Clear
4:53 PM 63.0 °F 50.0 °F 63% 30.12 in 10.0 mi West 10.4 mph - N/A   Clear
5:53 PM 60.1 °F 50.0 °F 69% 30.14 in 10.0 mi WSW 13.8 mph - N/A   Mostly Cloudy
6:53 PM 59.0 °F 51.1 °F 75% 30.13 in 10.0 mi WSW 8.1 mph - N/A   Mostly Cloudy
7:53 PM 57.0 °F 51.1 °F 81% 30.14 in 10.0 mi WSW 10.4 mph - N/A   Overcast
8:45 PM 57.2 °F 51.8 °F 82% 30.11 in 10.0 mi West 9.2 mph - N/A   Scattered Clouds
8:53 PM 57.0 °F 51.1 °F 81% 30.14 in 10.0 mi West 8.1 mph - N/A   Partly Cloudy
9:53 PM 57.0 °F 51.1 °F 81% 30.16 in 10.0 mi WSW 11.5 mph - N/A   Clear
10:53 PM 55.9 °F 51.1 °F 84% 30.17 in 10.0 mi West 6.9 mph - N/A   Clear
11:53 PM 55.0 °F 51.1 °F 86% 30.17 in 10.0 mi West 5.8 mph - N/A   Clear